| time (UTC) | temp F | wind direction | speed MPH | gust MPH | rain 1hr in | rain 24hr in | rain mn in | humidity % | barometer mb |
| 20260504081541 | 53 | 180 | 1.0 | 3.0 | 0.00 | 0.01 | 0.00 | 71 | 1015.3 |
| 20260504050007 | 51 | 180 | 0.0 | 0.0 | 0.00 | 0.01 | 0.01 | 73 | 1016.6 |
| 20260504044512 | 51 | 180 | 0.0 | 0.0 | 0.00 | 0.01 | 0.01 | 74 | 1016.6 |
| 20260504043012 | 51 | 180 | 0.0 | 0.0 | 0.00 | 0.01 | 0.01 | 74 | 1016.8 |
| 20260504041518 | 51 | 180 | 0.0 | 0.0 | 0.00 | 0.01 | 0.01 | 75 | 1016.8 |
| 20260504040005 | 50 | 180 | 0.0 | 0.0 | 0.00 | 0.01 | 0.01 | 74 | 1016.8 |
| 20260504034630 | 51 | 180 | 0.0 | 0.0 | 0.00 | 0.01 | 0.01 | 73 | 1016.8 |
| 20260504033003 | 51 | 180 | 0.0 | 0.0 | 0.00 | 0.01 | 0.01 | 73 | 1016.9 |
| 20260504031503 | 51 | 180 | 0.0 | 0.0 | 0.00 | 0.01 | 0.01 | 73 | 1017.0 |
| 20260504030002 | 51 | 180 | 0.0 | 0.0 | 0.00 | 0.01 | 0.01 | 72 | 1017.0 |
| 20260504024503 | 52 | 180 | 0.0 | 0.0 | 0.00 | 0.01 | 0.01 | 73 | 1017.1 |
| 20260504023002 | 52 | 180 | 0.0 | 0.0 | 0.00 | 0.01 | 0.01 | 72 | 1017.0 |
| 20260504021500 | 53 | 180 | 0.0 | 0.0 | 0.00 | 0.01 | 0.01 | 71 | 1016.9 |
| 20260504020132 | 53 | 180 | 0.0 | 0.0 | 0.00 | 0.01 | 0.01 | 68 | 1016.8 |
| 20260504014603 | 54 | 180 | 0.0 | 0.0 | 0.00 | 0.01 | 0.01 | 68 | 1016.8 |
| 20260504013130 | 55 | 180 | 0.0 | 0.0 | 0.00 | 0.01 | 0.01 | 66 | 1016.6 |
| 20260504011600 | 56 | 180 | 0.0 | 0.0 | 0.00 | 0.01 | 0.01 | 62 | 1016.6 |
| 20260504010101 | 58 | 180 | 0.0 | 0.0 | 0.00 | 0.01 | 0.01 | 59 | 1016.7 |
| 20260504004558 | 60 | 180 | 0.0 | 0.0 | 0.00 | 0.01 | 0.01 | 55 | 1016.7 |
| 20260504003058 | 61 | 180 | 0.0 | 0.0 | 0.00 | 0.01 | 0.01 | 52 | 1016.7 |
| 20260504001559 | 63 | 218 | 0.0 | 0.0 | 0.00 | 0.01 | 0.01 | 47 | 1016.6 |
| 20260504000106 | 66 | 249 | 0.0 | 0.0 | 0.00 | 0.01 | 0.01 | 42 | 1016.6 |
| 20260503234555 | 67 | 263 | 0.0 | 2.0 | 0.00 | 0.01 | 0.01 | 40 | 1016.7 |
| 20260503233054 | 67 | 249 | 0.0 | 3.0 | 0.00 | 0.01 | 0.01 | 39 | 1016.6 |
| 20260503231552 | 68 | 231 | 0.0 | 5.0 | 0.00 | 0.01 | 0.01 | 37 | 1016.7 |
| 20260503230048 | 68 | 233 | 1.0 | 8.0 | 0.00 | 0.01 | 0.01 | 40 | 1016.9 |
| 20260503224544 | 68 | 297 | 3.0 | 7.0 | 0.00 | 0.01 | 0.01 | 37 | 1017.2 |
| 20260503223043 | 68 | 254 | 2.0 | 6.0 | 0.00 | 0.01 | 0.01 | 38 | 1017.5 |
| 20260503221556 | 68 | 221 | 2.0 | 12.0 | 0.00 | 0.01 | 0.01 | 38 | 1017.6 |
| 20260503220039 | 68 | 279 | 1.0 | 5.0 | 0.00 | 0.01 | 0.01 | 39 | 1017.7 |
| 20260503214540 | 69 | 189 | 3.0 | 9.0 | 0.00 | 0.01 | 0.01 | 39 | 1017.8 |
| 20260503213037 | 67 | 210 | 2.0 | 9.0 | 0.00 | 0.01 | 0.01 | 38 | 1017.9 |
| 20260503211530 | 68 | 158 | 2.0 | 6.0 | 0.00 | 0.01 | 0.01 | 40 | 1018.0 |
| 20260503210028 | 67 | 230 | 2.0 | 9.0 | 0.00 | 0.01 | 0.01 | 38 | 1018.4 |
| 20260503204527 | 68 | 239 | 3.0 | 9.0 | 0.00 | 0.01 | 0.01 | 41 | 1018.6 |
| 20260503203032 | 67 | 286 | 3.0 | 11.0 | 0.00 | 0.01 | 0.01 | 39 | 1018.8 |
| 20260503201520 | 66 | 180 | 2.0 | 10.0 | 0.00 | 0.01 | 0.01 | 37 | 1019.2 |
| 20260503200018 | 66 | 180 | 4.0 | 12.0 | 0.00 | 0.01 | 0.01 | 38 | 1019.3 |
| 20260503194515 | 66 | 180 | 2.0 | 11.0 | 0.00 | 0.01 | 0.01 | 40 | 1020.0 |
| 20260503193025 | 66 | 180 | 5.0 | 9.0 | 0.00 | 0.01 | 0.01 | 37 | 1020.0 |
| 20260503191527 | 65 | 180 | 2.0 | 11.0 | 0.00 | 0.01 | 0.01 | 40 | 1020.3 |
| 20260503190023 | 65 | 180 | 3.0 | 10.0 | 0.00 | 0.01 | 0.01 | 42 | 1020.5 |
| 20260503184507 | 65 | 180 | 3.0 | 6.0 | 0.00 | 0.01 | 0.01 | 42 | 1020.7 |
| 20260503183005 | 64 | 180 | 2.0 | 6.0 | 0.00 | 0.01 | 0.01 | 43 | 1020.9 |
| 20260503181505 | 64 | 180 | 1.0 | 8.0 | 0.00 | 0.01 | 0.01 | 43 | 1021.1 |
| 20260503180005 | 63 | 180 | 1.0 | 5.0 | 0.00 | 0.01 | 0.01 | 42 | 1021.2 |
| 20260503174604 | 62 | 180 | 3.0 | 6.0 | 0.00 | 0.01 | 0.01 | 40 | 1021.4 |
| 20260503173104 | 62 | 180 | 6.0 | 10.0 | 0.00 | 0.01 | 0.01 | 37 | 1021.6 |
| 20260503171556 | 62 | 180 | 0.0 | 4.0 | 0.00 | 0.01 | 0.01 | 46 | 1021.7 |
| 20260503170105 | 60 | 180 | 1.0 | 5.0 | 0.00 | 0.01 | 0.01 | 42 | 1021.8 |